Custer, SD

2:34 AM MST on February 11, 2016 (GMT -0700)
Custer County

Weather History for KCUT - May, 2013

Change the Weather History Date:

Monday, May 27, 2013

  Actual Average Record
Temperature  
Mean Temperature 56 °F 52 °F  
Max Temperature 70 °F 63 °F 85 °F (1969)
Min Temperature 42 °F 40 °F 22 °F (1973)
Degree Days  
Heating Degree Days 9 14  
Month to date heating degree days 410 467  
Since 1 July heating degree days 8014 8117  
Cooling Degree Days 0 0  
Month to date cooling degree days 2 0  
Year to date cooling degree days 2 0  
Growing Degree Days 8 (Base 50)    
Moisture  
Dew Point 52 °F    
Average Humidity 74    
Maximum Humidity 100    
Minimum Humidity 47    
Precipitation  
Precipitation 0.31 in 0.10 in 1.00 in (1956)
Month to date precipitation 1.18 2.66  
Year to date precipitation 6.48 6.65  
Sea Level Pressure  
Sea Level Pressure 29.81 in    
Wind  
Wind Speed 5 mph (ENE)    
Max Wind Speed 15 mph    
Max Gust Speed 22 mph    
Visibility 5 miles    
Events Fog , Rain    
T = Trace of Precipitation, MM = Missing Value Source: NWS Daily Summary

Daily Weather History Graph

Daily Weather History Graph

Search for Another Location

Airport or City:

Trip Planner

Search our weather history database for the weather conditions in past years. The results will help you decide how hot, cold, wet, or windy it might be!

Date:

Astronomy

May. 27, 2013 Rise Set
Actual Time 5:18 AM MDT 8:25 PM MDT
Civil Twilight 4:43 AM MDT 9:00 PM MDT
Nautical Twilight 3:59 AM MDT 9:44 PM MDT
Astronomical Twilight 3:05 AM MDT 10:38 PM MDT
Moon 11:04 PM MDT (5/27) 7:59 AM MDT (5/27)
Length of Visible Light 16h 16m
Length of Day
15h 07m
Waning Gibbous, 90% of the Moon is Illuminated
May 27
Waning Gibbous
May 31
Last Quarter
Jun 8
New
Jun 16
First Quarter
Jun 23
Full

Hourly Weather History & Observations

Time (MDT) Temp. Dew Point Humidity Pressure Visibility Wind Dir Wind Speed Gust Speed Precip Events Conditions
12:04 AM 55.4 °F 53.6 °F 94% 29.95 in 3.0 mi East 6.9 mph - N/A   Overcast
12:12 AM 53.6 °F 53.6 °F 100% 29.95 in 1.8 mi East 6.9 mph - N/A   Overcast
12:30 AM 53.6 °F 53.6 °F 100% 29.94 in 0.8 mi East 8.1 mph - N/A   Mist
12:43 AM 53.6 °F 53.6 °F 100% 29.94 in 0.2 mi ENE 6.9 mph - N/A Fog Fog
12:53 AM 54.0 °F 53.1 °F 97% 29.79 in 0.2 mi NE 8.1 mph - N/A Fog Fog
1:07 AM 53.6 °F 53.6 °F 100% 29.96 in 0.5 mi North 9.2 mph - N/A Fog Fog
1:19 AM 53.6 °F 53.6 °F 100% 29.95 in 2.0 mi NNE 8.1 mph - N/A   Overcast
1:43 AM 53.6 °F 53.6 °F 100% 29.93 in 10.0 mi NE 8.1 mph - N/A   Overcast
1:53 AM 53.1 °F 52.0 °F 96% 29.77 in 10.0 mi NNE 6.9 mph - N/A   Overcast
2:14 AM 53.6 °F 51.8 °F 94% 29.92 in 10.0 mi ENE 4.6 mph - N/A   Scattered Clouds
2:23 AM 53.6 °F 51.8 °F 94% 29.92 in 10.0 mi ENE 5.8 mph - N/A   Mostly Cloudy
2:49 AM 51.8 °F 51.8 °F 100% 29.90 in 10.0 mi ENE 8.1 mph - N/A   Mostly Cloudy
2:53 AM 52.0 °F 51.1 °F 97% 29.73 in 10.0 mi NE 6.9 mph - N/A   Mostly Cloudy
3:04 AM 53.6 °F 51.8 °F 94% 29.90 in 9.0 mi ENE 6.9 mph - N/A   Mostly Cloudy
3:14 AM 53.6 °F 51.8 °F 94% 29.90 in 1.8 mi ENE 10.4 mph - N/A   Overcast
3:24 AM 53.6 °F 51.8 °F 94% 29.90 in 0.5 mi ENE 8.1 mph - N/A Fog Fog
3:34 AM 53.6 °F 51.8 °F 94% 29.90 in 0.2 mi ENE 8.1 mph - N/A Fog Fog
3:45 AM 53.6 °F 51.8 °F 94% 29.89 in 0.5 mi NE 9.2 mph - N/A Fog Fog
3:53 AM 53.1 °F 52.0 °F 96% 29.73 in 0.5 mi NE 8.1 mph - N/A Fog Fog
4:53 AM 53.1 °F 52.0 °F 96% 29.74 in 0.2 mi Calm Calm - N/A Fog Fog
5:53 AM 54.0 °F 53.1 °F 97% 29.73 in 0.2 mi East 5.8 mph - N/A Fog Fog
6:53 AM 54.0 °F 53.1 °F 97% 29.75 in 0.2 mi East 3.5 mph - N/A Fog Fog
7:34 AM 53.6 °F 53.6 °F 100% 29.90 in 1.0 mi Calm Calm - N/A   Mist
7:41 AM 55.4 °F 53.6 °F 94% 29.90 in 3.0 mi Calm Calm - N/A   Overcast
7:53 AM 55.0 °F 54.0 °F 96% 29.76 in 8.0 mi Calm Calm - N/A   Overcast
8:40 AM 55.4 °F 53.6 °F 94% 29.90 in 10.0 mi Calm Calm - N/A   Overcast
8:53 AM 57.0 °F 54.0 °F 89% 29.77 in 4.0 mi Calm Calm - N/A   Overcast
9:10 AM 57.2 °F 53.6 °F 88% 29.90 in 5.0 mi Calm Calm - N/A   Overcast
9:24 AM 57.2 °F 55.4 °F 94% 29.89 in 1.5 mi East 4.6 mph - N/A   Overcast
9:42 AM 57.2 °F 55.4 °F 94% 29.89 in 3.0 mi ESE 8.1 mph - N/A   Overcast
9:49 AM 55.4 °F 55.4 °F 100% 29.89 in 1.5 mi ESE 9.2 mph - N/A   Overcast
9:53 AM 55.9 °F 55.0 °F 97% 29.75 in 0.8 mi ESE 9.2 mph - N/A   Overcast
10:06 AM 55.4 °F 53.6 °F 94% 29.87 in 2.0 mi SE 9.2 mph 19.6 mph 0.01 in Rain Light Rain
10:13 AM 55.4 °F 55.4 °F 100% 29.87 in 5.0 mi ESE 5.8 mph 17.3 mph 0.01 in Rain Light Rain
10:53 AM 55.9 °F 55.0 °F 97% 29.73 in 1.8 mi Variable 4.6 mph - 0.01 in   Overcast
11:53 AM 55.0 °F 54.0 °F 96% 29.73 in 1.2 mi ESE 6.9 mph - 0.01 in Rain Light Rain
11:59 AM 55.4 °F 53.6 °F 94% 29.86 in 3.0 mi ESE 5.8 mph - 0.00 in   Overcast
12:19 PM 55.4 °F 53.6 °F 94% 29.86 in 1.8 mi SSE 5.8 mph - 0.00 in   Overcast
12:45 PM 57.2 °F 55.4 °F 94% 29.85 in 3.0 mi Calm Calm - 0.01 in   Overcast
12:53 PM 57.9 °F 55.0 °F 90% 29.71 in 5.0 mi Variable 4.6 mph - 0.01 in   Overcast
1:06 PM 57.2 °F 55.4 °F 94% 29.84 in 10.0 mi South 6.9 mph - N/A   Overcast
1:31 PM 60.8 °F 55.4 °F 82% 29.83 in 10.0 mi Variable 4.6 mph - N/A   Overcast
1:53 PM 62.1 °F 54.0 °F 75% 29.68 in 10.0 mi West 6.9 mph - N/A   Mostly Cloudy
2:00 PM 64.4 °F 55.4 °F 73% 29.83 in 10.0 mi SW 6.9 mph - N/A   Mostly Cloudy
2:11 PM 64.4 °F 53.6 °F 68% 29.82 in 10.0 mi West 5.8 mph - N/A   Scattered Clouds
2:35 PM 64.4 °F 51.8 °F 64% 29.81 in 10.0 mi SW 8.1 mph - N/A   Mostly Cloudy
2:50 PM 66.2 °F 51.8 °F 60% 29.81 in 10.0 mi Variable 4.6 mph - N/A   Scattered Clouds
2:53 PM 66.9 °F 51.1 °F 57% 29.64 in 10.0 mi SW 10.4 mph - N/A   Scattered Clouds
3:53 PM 66.9 °F 50.0 °F 54% 29.62 in 10.0 mi SW 8.1 mph 16.1 mph N/A   Partly Cloudy
4:53 PM 69.1 °F 48.0 °F 47% 29.59 in 10.0 mi West 10.4 mph - N/A   Partly Cloudy
5:53 PM 60.1 °F 43.0 °F 53% 29.61 in 10.0 mi NW 6.9 mph 21.9 mph N/A   Overcast
6:08 PM 51.8 °F 44.6 °F 76% 29.76 in 2.5 mi NNE 10.4 mph - 0.12 in Rain Heavy Rain
6:21 PM 51.8 °F 46.4 °F 82% 29.77 in 5.0 mi East 6.9 mph - 0.24 in Rain Rain
6:53 PM 51.1 °F 48.0 °F 89% 29.68 in 10.0 mi Calm Calm - 0.28 in   Overcast
7:53 PM 51.1 °F 46.0 °F 83% 29.69 in 10.0 mi Variable 3.5 mph - N/A   Clear
8:53 PM 46.9 °F 45.0 °F 93% 29.70 in 10.0 mi South 4.6 mph - N/A   Clear
9:53 PM 46.9 °F 43.0 °F 86% 29.70 in 10.0 mi West 4.6 mph - N/A   Clear
10:53 PM 46.9 °F 43.0 °F 86% 29.72 in 10.0 mi NNE 3.5 mph - N/A   Clear
11:53 PM 45.0 °F 41.0 °F 86% 29.75 in 10.0 mi Calm Calm - N/A   Partly Cloudy